Home   Weather   Milan   Past weeks

Flag for Italy Past Weather in Milan, Italy — Yesterday and Last 2 Weeks

Now
32 °F

Clear.


Feels Like: 32 °F
Forecast: 29 / 46 °F
Wind: 1 mph from North

Location: Milan / Linate

Current Time: Jan 22, 2017 at 11:26:41 pm

Latest Report: Jan 22, 2017 at 10:50 pm


Visibility: 10 mi

Pressure: 30.30 "Hg

Humidity: 80%

Dew Point: 27 °F

Location of MilanLocation

Past Weather in Milan — Graph

°F

Milan Temperature Yesterday

Maximum temperature yesterday: 45 °F (at 2:20 pm)
Minimum temperature yesterday: 25 °F (at 7:20 am)
Average temperature yesterday: 33 °F

High & Low Weather Summary for the Past Weeks

 TemperatureHumidityPressure
High48 °F (Jan 15, 2:50 pm)100% (Jan 9, 3:20 am)30.51 "Hg (Jan 9, 3:20 am)
Low21 °F (Jan 9, 2:50 am)18% (Jan 15, 2:50 pm)29.47 "Hg (Jan 13, 1:50 pm)
Average34 °F62%30.13 "Hg
* Reported Jan 7 10:20 pm — Jan 22 10:20 pm, Milan, Weather by CustomWeather, © 2017

Note: Actual official high and low records may vary slightly from our data, if they occured in-between our weather recording intervals... More about our weather records

Advertising

Milan Weather History for the Previous 24 Hours

Scroll right to see more
 ConditionsComfort  
Time TempWeatherWind HumidityBarometerVisibility
10:20 pm
Sun, Jan 22
32 °FPassing clouds.3 mph80%30.30 "HgN/A
9:50 pm32 °FClear.2 mph69%30.30 "Hg10 mi
9:20 pm34 °FClear.2 mph65%30.33 "Hg10 mi
8:50 pm34 °FClear.No wind70%30.33 "Hg10 mi
8:20 pm34 °FClear.1 mph70%30.33 "Hg10 mi
7:50 pm34 °FClear.No wind65%30.33 "Hg10 mi
7:20 pm36 °FClear.No wind65%30.33 "Hg10 mi
6:50 pm36 °FClear.No wind60%30.33 "Hg10 mi
6:20 pm37 °FClear.5 mph56%30.33 "Hg10 mi
5:50 pm41 °FPassing clouds.7 mph49%30.30 "HgN/A
5:20 pm43 °FClear.3 mph42%30.33 "Hg10 mi
4:50 pm45 °FSunny.5 mph39%30.33 "Hg10 mi
4:20 pm46 °FPassing clouds.5 mph37%30.33 "HgN/A
3:50 pm48 °FPassing clouds.5 mph34%30.33 "HgN/A
3:20 pm48 °FPassing clouds.5 mph34%30.33 "HgN/A
2:50 pm48 °FPassing clouds.6 mph34%30.33 "HgN/A
2:20 pm48 °FPassing clouds.5 mph34%30.33 "HgN/A
1:50 pm46 °FPassing clouds.5 mph40%30.33 "HgN/A
1:20 pm46 °FSunny.3 mph40%30.36 "Hg10 mi
12:50 pm46 °FSunny.3 mph40%30.36 "Hg10 mi
12:20 pm45 °FSunny.3 mph46%30.39 "Hg10 mi
11:50 am45 °FSunny.2 mph49%30.39 "Hg10 mi
11:20 am43 °FSunny.2 mph49%30.42 "Hg10 mi
10:50 am39 °FPassing clouds.3 mph65%30.42 "HgN/A
10:20 am36 °FSunny.2 mph70%30.42 "Hg10 mi
9:50 am39 °FSunny.No wind65%30.39 "Hg10 mi
9:20 am32 °FClear.1 mph80%30.39 "Hg5 mi
8:50 am27 °FClear.No wind93%30.39 "Hg4 mi
8:20 am27 °FIce fog.1 mph93%30.39 "Hg2 mi
7:50 am27 °FIce fog.1 mph93%30.39 "Hg2 mi
7:20 am25 °FIce fog.No wind93%30.36 "Hg3 mi
6:50 am25 °FIce fog.1 mph93%30.36 "Hg2 mi
6:20 am27 °FIce fog.No wind93%30.36 "Hg2 mi
5:50 am25 °FIce fog.2 mph93%30.36 "Hg2 mi
5:20 am25 °FIce fog.No wind93%30.36 "Hg2 mi
4:50 am27 °FIce fog.No wind93%30.39 "Hg2 mi
4:20 am27 °FIce fog.2 mph86%30.39 "Hg2 mi
3:50 am30 °FIce fog.3 mph80%30.39 "Hg2 mi
3:20 am28 °FIce fog.6 mph80%30.39 "Hg2 mi
2:50 am28 °FIce fog.5 mph93%30.39 "Hg2 mi
2:20 am28 °FIce fog.5 mph86%30.39 "Hg2 mi
1:50 am27 °FIce fog.1 mph93%30.42 "Hg2 mi
1:20 am27 °FIce fog.No wind93%30.39 "Hg2 mi
12:50 am27 °FIce fog.No wind93%30.42 "Hg2 mi
12:20 am27 °FIce fog.No wind93%30.42 "Hg2 mi
11:50 pm
Sat, Jan 21
28 °FIce fog.No wind93%30.42 "Hg3 mi
11:20 pm28 °FIce fog.No wind86%30.42 "Hg3 mi
Weather by CustomWeather, © 2017

See weather overviewHow to use our weather pages